Location: La Coruña
(43.3623°N, 8.4115°W)
Time: 11:37:26
(UTC+01:00)

STARLINK-1111 - Pass Details

Date: 21 January 2020
Orbit: 532 x 534 km, 53.0° (Epoch: 18 February)

Event Time Altitude Azimuth Distance (km) Brightness Sun altitude
Rises 20:23:18 0° 289° (WNW) 2,663 8.2 -20.3°
Reaches altitude 10° 20:25:58 10° 307° (NW) 1,772 6.8 -20.8°
Maximum altitude 20:29:01 20° 356° (N) 1,241 5.3 -21.4°
Enters shadow 20:29:12 20° 0° (N) 1,243 5.3 -21.4°
